Regional Weather Roundup
Issued by NWS

Home | Current Version | Previous Version | Graphics & Text | Print | Product List | Glossary On
Versions: 1 2 3 4 5 6 7 8 9 10 11 12 13 14 15 16 17 18 19 20 21 22 23 24 25 26 27 28 29 30 31 32 33 34 35 36 37 38 39 40 41 42 43 44 45 46 47 48 49 50
000
ASUS45 KABQ 260501
RWRNM
WEATHER ROUNDUP FOR NEW MEXICO
NATIONAL WEATHER SERVICE ALBUQUERQUE NM
1000 PM MST THU DEC 25 2014

NOTE: "FAIR" MEANS FEW OR NO CLOUDS BELOW 12,000 FEET AGL WITH NO
       SIGNIFICANT WEATHER OR OBSTRUCTIONS TO VISION.

      THIS PRODUCT IS RELEASED AS TWO VERSIONS.  ONE VERSION NEAR
      THE TOP OF THE HOUR CONTAINING PRELIMINARY DATA FROM ALBUQUERQUE
      AND OTHER STATIONS.  A FINAL VERSION WITH ADDITIONAL DATA IS
      ISSUED ABOUT 10 MINUTES AFTER THE HOUR.

NMZ501-503-504-510>518-260600-
NORTHWEST PLATEAU/NORTHCENTRAL MOUNTAINS

CITY           SKY/WX    TMP DP  RH WIND       PRES   REMARKS
FARMINGTON     PTCLDY    28  20  71 SW5       29.68S WCI  23
LOS ALAMOS     CLOUDY    28  28 100 SE3       29.70S
SANTA FE       LGT SNOW  31  29  92 CALM      29.72S VSB 1
ANGEL FIRE     CLOUDY    26  24  91 SW9       29.69R WCI  17

$$
NMZ402-403-502-505>509-260600-
WESTCENTRAL MOUNTAINS/SOUTHWEST MOUNTAINS

CITY           SKY/WX    TMP DP  RH WIND       PRES   REMARKS
GALLUP         CLOUDY    26  21  81 S7        29.69S WCI  18
GRANTS         PTCLDY    17  14  88 CALM      29.72S
SILVER CITY    MOCLDY    43  21  42 W22       29.75R

$$
NMZ407-409-411-412-260600-
SOUTHERN DESERTS

CITY           SKY/WX    TMP DP  RH WIND       PRES   REMARKS
LORDSBURG      CLOUDY    41  32  70 NW17G24   29.77R
DEMING         CLEAR     49  17  28 SW14      29.72F
HOLLOMAN AFB   PTCLDY    45  21  37 W10       29.72R
ALAMOGORDO     PTCLDY    50  19  29 S13G21    29.74S
T OR C         CLEAR     49  21  33 S14       29.67R

$$
NMZ519>523-260600-
CENTRAL VALLEYS/CENTRAL HIGHLANDS

CITY           SKY/WX    TMP DP  RH WIND       PRES   REMARKS
ALBUQUERQUE    MOCLDY    40  26  57 W16G30    29.71F WCI  31
DOUBLE EAGLE   CLOUDY    34  28  79 W13       29.71R WCI  25
MORIARTY ARPT  CLOUDY    35  26  70 N9        29.74R WCI  28
CLINES CORNERS LGT SNOW  32  27  81 NW13      29.70R WCI  22
BELEN          CLOUDY    37  31  78 NW14G22   29.72R WCI  28
SOCORRO        MOCLDY    47  20  34 CALM      29.69R

$$
NMZ524>526-539-540-260600-
SOUTHCENTRAL MOUNTAINS

CITY           SKY/WX    TMP DP  RH WIND       PRES   REMARKS
RUIDOSO        PTCLDY    43  16  33 SW30G39   29.74R

$$
NMZ527>531-260600-
NORTHEAST HIGHLANDS/NORTHEAST PLAINS

CITY           SKY/WX    TMP DP  RH WIND       PRES   REMARKS
LAS VEGAS      PTCLDY    30  19  63 SW10      29.68R WCI  21
RATON          CLEAR     28  21  75 N9        29.65R WCI  19
CLAYTON        PTCLDY    35  18  49 W7        29.65S WCI  29

$$
NMZ532>537-260600-
EASTCENTRAL PLAINS

CITY           SKY/WX    TMP DP  RH WIND       PRES   REMARKS
TUCUMCARI      PTCLDY    37  19  48 S9        29.64R WCI  30
CANNON AFB     HAZE      35  20  53 S8        29.70R VSB 1/4 WCI  29
CLOVIS AIRPORT CLEAR     34  19  55 S10       29.71R WCI  26

$$
NMZ028-029-538-260600-
SOUTHEAST PLAINS

CITY           SKY/WX    TMP DP  RH WIND       PRES   REMARKS
ROSWELL        CLEAR     40  17  39 S8        29.69S WCI  34
ARTESIA        CLEAR     41  21  45 S8        29.71S
CARLSBAD       CLEAR     43  21  41 E8        29.70R
HOBBS          CLEAR     39  25  56 S10       29.76S WCI  32


$$


USA.gov is the U.S. government's official web portal to all federal, state and local government web resources and services.